Location: Cueva de Ratón
(10.1013°N, 67.6606°W)
Time: 13:05:01
(UTC+00:00)

SL-16 R/B - Pass Details

Date: 02 December 2023
Orbit: 842 x 846 km, 71.0° (Epoch: 26 February)

Event Time Altitude Azimuth Distance (km) Brightness Sun altitude
Rises 22:39:00 0° 344° (NNW) 3,390 5.3 -8.1°
Reaches altitude 10° 22:41:26 10° 344° (NNW) 2,455 4.6 -8.7°
Maximum altitude 22:47:05 90° 42° (NE) 845 2.2 -10.0°
Drops below altitude 10° 22:52:44 10° 165° (SSE) 2,453 4.7 -11.3°
Sets 22:55:10 0° 165° (SSE) 3,388 5.4 -11.8°
